TimeCDT,TemperatureF,Dew PointF,Humidity,Sea Level PressureIn,VisibilityMPH,Wind Direction,Wind SpeedMPH,Gust SpeedMPH,PrecipitationIn,Events,Conditions,WindDirDegrees,DateUTC
12:12 AM,55.4,44.6,67,29.94,10.0,SSE,3.5,-,N/A,,Scattered Clouds,160,2013-10-11 05:12:00
12:32 AM,55.4,44.6,67,29.94,10.0,SE,3.5,-,N/A,,Clear,140,2013-10-11 05:32:00
12:52 AM,53.6,42.8,67,29.93,10.0,Calm,Calm,-,N/A,,Clear,0,2013-10-11 05:52:00
1:12 AM,53.6,44.6,72,29.93,10.0,Calm,Calm,-,N/A,,Clear,0,2013-10-11 06:12:00
1:32 AM,51.8,44.6,76,29.93,10.0,SE,3.5,-,N/A,,Clear,140,2013-10-11 06:32:00
1:52 AM,51.8,42.8,71,29.93,10.0,Calm,Calm,-,N/A,,Clear,0,2013-10-11 06:52:00
2:12 AM,51.8,44.6,76,29.94,10.0,Calm,Calm,-,N/A,,Clear,0,2013-10-11 07:12:00
2:32 AM,51.8,44.6,76,29.94,10.0,Calm,Calm,-,N/A,,Clear,0,2013-10-11 07:32:00
2:52 AM,51.8,44.6,76,29.94,10.0,Calm,Calm,-,N/A,,Clear,0,2013-10-11 07:52:00
3:12 AM,50.0,44.6,82,29.94,10.0,Calm,Calm,-,N/A,,Clear,0,2013-10-11 08:12:00
3:32 AM,50.0,44.6,82,29.93,10.0,SE,3.5,-,N/A,,Clear,140,2013-10-11 08:32:00
3:52 AM,50.0,44.6,82,29.93,10.0,Calm,Calm,-,N/A,,Clear,0,2013-10-11 08:52:00
4:12 AM,50.0,44.6,82,29.93,10.0,Calm,Calm,-,N/A,,Clear,0,2013-10-11 09:12:00
4:33 AM,51.8,46.4,82,29.93,10.0,Calm,Calm,-,N/A,,Clear,0,2013-10-11 09:33:00
4:53 AM,51.8,46.4,82,29.93,10.0,SSE,3.5,-,N/A,,Clear,150,2013-10-11 09:53:00
5:12 AM,51.8,46.4,82,29.93,10.0,SSE,3.5,-,N/A,,Clear,150,2013-10-11 10:12:00
5:32 AM,51.8,46.4,82,29.93,10.0,Calm,Calm,-,N/A,,Clear,0,2013-10-11 10:32:00
5:52 AM,51.8,46.4,82,29.93,10.0,Calm,Calm,-,N/A,,Clear,0,2013-10-11 10:52:00
6:12 AM,51.8,46.4,82,29.92,10.0,Calm,Calm,-,N/A,,Clear,0,2013-10-11 11:12:00
6:32 AM,51.8,46.4,82,29.92,10.0,Calm,Calm,-,N/A,,Clear,0,2013-10-11 11:32:00
6:52 AM,53.6,48.2,82,29.92,10.0,SE,4.6,-,N/A,,Clear,140,2013-10-11 11:52:00
7:12 AM,53.6,46.4,77,29.92,10.0,SE,3.5,-,N/A,,Clear,140,2013-10-11 12:12:00
7:32 AM,53.6,46.4,77,29.92,10.0,SSE,3.5,-,N/A,,Clear,150,2013-10-11 12:32:00
7:53 AM,51.8,46.4,82,29.91,10.0,SSE,3.5,-,N/A,,Clear,150,2013-10-11 12:53:00
8:12 AM,53.6,48.2,82,29.91,10.0,Calm,Calm,-,N/A,,Clear,0,2013-10-11 13:12:00
8:32 AM,53.6,48.2,82,29.90,10.0,SE,3.5,-,N/A,,Clear,140,2013-10-11 13:32:00
8:52 AM,53.6,48.2,82,29.90,10.0,SE,4.6,-,N/A,,Clear,140,2013-10-11 13:52:00
9:12 AM,55.4,48.2,77,29.90,10.0,SE,3.5,-,N/A,,Clear,140,2013-10-11 14:12:00
9:32 AM,55.4,50.0,82,29.90,10.0,SSE,6.9,-,N/A,,Clear,150,2013-10-11 14:32:00
9:52 AM,57.2,50.0,77,29.90,10.0,SSE,3.5,-,N/A,,Clear,150,2013-10-11 14:52:00
10:13 AM,59.0,51.8,77,29.89,10.0,Calm,Calm,-,N/A,,Clear,0,2013-10-11 15:13:00
10:32 AM,60.8,51.8,72,29.88,10.0,Calm,Calm,-,N/A,,Clear,0,2013-10-11 15:32:00
10:52 AM,62.6,51.8,68,29.88,10.0,SE,3.5,-,N/A,,Clear,130,2013-10-11 15:52:00
11:12 AM,62.6,51.8,68,29.87,10.0,SE,4.6,-,N/A,,Clear,130,2013-10-11 16:12:00
11:32 AM,64.4,53.6,68,29.85,10.0,Calm,Calm,-,N/A,,Clear,0,2013-10-11 16:32:00
11:52 AM,66.2,51.8,60,29.85,10.0,SSE,10.4,-,N/A,,Clear,150,2013-10-11 16:52:00
12:12 PM,66.2,51.8,60,29.84,10.0,SSE,4.6,-,N/A,,Clear,150,2013-10-11 17:12:00
12:33 PM,66.2,51.8,60,29.83,10.0,SE,5.8,-,N/A,,Clear,130,2013-10-11 17:33:00
12:52 PM,66.2,53.6,64,29.82,10.0,SE,4.6,-,N/A,,Clear,140,2013-10-11 17:52:00
1:12 PM,71.6,55.4,57,29.79,10.0,ESE,5.8,-,N/A,,Clear,120,2013-10-11 18:12:00
1:32 PM,71.6,53.6,53,29.78,10.0,SE,4.6,-,N/A,,Clear,140,2013-10-11 18:32:00
1:52 PM,71.6,53.6,53,29.77,10.0,ESE,5.8,-,N/A,,Clear,120,2013-10-11 18:52:00
2:12 PM,73.4,53.6,50,29.75,10.0,ESE,6.9,-,N/A,,Clear,120,2013-10-11 19:12:00
2:30 PM,73.4,53.6,50,29.74,10.0,ESE,5.8,-,N/A,,Clear,110,2013-10-11 19:30:00
2:52 PM,73.4,51.8,47,29.72,10.0,ESE,5.8,-,N/A,,Clear,120,2013-10-11 19:52:00
3:12 PM,73.4,51.8,47,29.72,10.0,SE,5.8,-,N/A,,Clear,140,2013-10-11 20:12:00
3:32 PM,73.4,48.2,41,29.72,10.0,SE,9.2,-,N/A,,Clear,140,2013-10-11 20:32:00
3:52 PM,71.6,48.2,43,29.72,10.0,SE,6.9,19.6,N/A,,Clear,130,2013-10-11 20:52:00
4:12 PM,69.8,48.2,46,29.72,10.0,SSE,11.5,21.9,N/A,,Clear,150,2013-10-11 21:12:00
4:32 PM,69.8,51.8,53,29.74,10.0,SE,6.9,20.7,N/A,,Clear,140,2013-10-11 21:32:00
4:53 PM,66.2,51.8,60,29.73,10.0,ESE,6.9,17.3,N/A,,Clear,120,2013-10-11 21:53:00
5:12 PM,66.2,51.8,60,29.73,10.0,SE,6.9,-,N/A,,Clear,140,2013-10-11 22:12:00
5:32 PM,64.4,51.8,64,29.73,10.0,SE,8.1,-,N/A,,Clear,130,2013-10-11 22:32:00
5:52 PM,64.4,51.8,64,29.74,10.0,SE,5.8,-,N/A,,Clear,140,2013-10-11 22:52:00
6:12 PM,62.6,51.8,68,29.74,10.0,ESE,3.5,-,N/A,,Scattered Clouds,120,2013-10-11 23:12:00
6:32 PM,62.6,51.8,68,29.75,10.0,SE,3.5,-,N/A,,Mostly Cloudy,140,2013-10-11 23:32:00
6:53 PM,62.6,51.8,68,29.75,10.0,Calm,Calm,-,N/A,Rain,Light Rain,0,2013-10-11 23:53:00
7:12 PM,60.8,50.0,68,29.74,10.0,Calm,Calm,-,N/A,,Drizzle,0,2013-10-12 00:12:00
7:33 PM,57.2,51.8,82,29.73,3.0,Calm,Calm,-,0.02,Rain-Thunderstorm,Rain,0,2013-10-12 00:33:00
7:52 PM,55.4,51.8,88,29.71,4.0,Calm,Calm,-,0.02,,Haze,0,2013-10-12 00:52:00
8:13 PM,55.4,51.8,88,29.70,10.0,Calm,Calm,-,N/A,Thunderstorm,Overcast,0,2013-10-12 01:13:00
8:33 PM,55.4,53.6,94,29.68,10.0,Calm,Calm,-,N/A,,Overcast,0,2013-10-12 01:33:00
8:52 PM,55.4,53.6,94,29.68,10.0,SE,3.5,-,N/A,,Overcast,140,2013-10-12 01:52:00
9:12 PM,55.4,53.6,94,29.67,10.0,Calm,Calm,-,N/A,,Overcast,0,2013-10-12 02:12:00
9:32 PM,55.4,53.6,94,29.66,10.0,ESE,4.6,-,N/A,,Overcast,120,2013-10-12 02:32:00
9:53 PM,55.4,53.6,94,29.65,10.0,Calm,Calm,-,N/A,,Scattered Clouds,0,2013-10-12 02:53:00
10:12 PM,55.4,53.6,94,29.63,10.0,ESE,4.6,-,N/A,,Clear,120,2013-10-12 03:12:00
10:32 PM,55.4,53.6,94,29.62,10.0,ESE,3.5,-,N/A,,Clear,120,2013-10-12 03:32:00
10:52 PM,57.2,53.6,88,29.61,10.0,ESE,4.6,-,N/A,,Clear,120,2013-10-12 03:52:00
11:12 PM,57.2,53.6,88,29.61,10.0,SE,6.9,-,N/A,,Clear,130,2013-10-12 04:12:00
11:32 PM,59.0,53.6,82,29.60,10.0,SE,4.6,-,N/A,,Clear,130,2013-10-12 04:32:00
11:52 PM,59.0,53.6,82,29.59,10.0,SE,8.1,-,N/A,,Clear,140,2013-10-12 04:52:00